GW5424 Weather Reports


time (UTC)temp
F
wind
direction
speed
knots
gust
knots
rain 1hr
in
rain 24hr
in
rain mn
in
humidity
%
barometer
mb
20260505065536 56 213 0.9 1.7 0.00 0.00 0.00 84 1011.6
20260505065034 56 134 0.0 1.7 0.00 0.00 0.00 83 1011.6
20260505064542 56 112 0.0 1.7 0.00 0.00 0.00 83 1011.6
20260505064035 56 210 0.0 1.7 0.00 0.00 0.00 83 1011.5
20260505063536 57 124 0.0 1.7 0.00 0.00 0.00 82 1011.4
20260505063105 57 0 0.0 1.7 0.00 0.00 0.00 82 1011.4
20260505062536 57 12 0.0 1.7 0.00 0.00 0.00 81 1011.3
20260505062040 57 0 0.0 1.7 0.00 0.00 0.00 81 1011.3
20260505061612 58 141 0.0 1.7 0.00 0.00 0.00 81 1011.2
20260505061038 58 0 0.0 1.7 0.00 0.00 0.00 81 1011.2
20260505060539 58 0 0.0 1.7 0.00 0.00 0.00 79 1011.1
20260505060100 58 0 0.0 1.7 0.00 0.00 0.00 79 1011.0
20260505055538 58 227 0.0 1.7 0.00 0.00 0.00 79 1011.0
20260505055041 59 234 0.0 1.7 0.00 0.00 0.00 79 1011.0
20260505054550 59 183 0.0 1.7 0.00 0.00 0.00 78 1010.9
20260505054035 59 99 0.0 1.7 0.00 0.00 0.00 77 1011.0
20260505053537 59 0 0.0 1.7 0.00 0.00 0.00 77 1011.0
20260505053044 60 0 0.0 1.7 0.00 0.00 0.00 76 1010.9
20260505052537 60 90 0.0 1.7 0.00 0.00 0.00 76 1010.9
20260505052037 60 214 0.0 1.7 0.00 0.00 0.00 77 1010.8
20260505051610 60 355 0.0 1.7 0.00 0.00 0.00 75 1010.7
20260505051036 61 355 0.0 1.7 0.00 0.00 0.00 74 1010.7
20260505050537 61 90 0.9 1.7 0.00 0.00 0.00 74 1010.6
20260505041548 64 124 0.0 1.7 0.00 0.00 0.00 69 1010.1
20260505041037 64 0 0.0 1.7 0.00 0.00 0.00 67 1009.9
20260505040540 65 355 0.9 1.7 0.00 0.00 0.00 67 1010.0
20260505040053 65 141 0.0 1.7 0.00 0.00 0.00 66 1009.9
20260505035536 66 141 0.9 3.5 0.00 0.00 0.00 66 1009.8
20260505035038 66 344 0.9 3.5 0.00 0.00 0.00 65 1009.7
20260505034549 66 183 0.0 1.7 0.00 0.00 0.00 66 1009.7
20260505034038 67 167 0.0 1.7 0.00 0.00 0.00 64 1009.5
20260505033538 67 355 0.0 1.7 0.00 0.00 0.00 63 1009.5
20260505033048 68 0 0.0 1.7 0.00 0.00 0.00 65 1009.5
20260505032537 68 227 0.0 3.5 0.00 0.00 0.00 62 1009.3
20260505032036 69 217 0.9 3.5 0.00 0.00 0.00 60 1009.3
20260505031553 69 0 0.9 2.6 0.00 0.00 0.00 59 1009.2
20260505031036 70 90 0.9 5.2 0.00 0.00 0.00 59 1009.1
20260505030536 70 355 1.7 5.2 0.00 0.00 0.00 58 1009.1
20260505030046 71 90 1.7 5.2 0.00 0.00 0.00 57 1009.1
20260505025536 71 90 0.9 3.5 0.00 0.00 0.00 57 1009.0
20260505025037 72 355 0.9 3.5 0.00 0.00 0.00 57 1009.0
20260505024547 72 355 0.9 4.3 0.00 0.00 0.00 56 1008.9
20260505024033 72 355 0.0 7.8 0.00 0.00 0.00 56 1009.0
20260505023538 73 90 1.7 7.8 0.00 0.00 0.00 55 1008.9
20260505023042 73 90 1.7 5.2 0.00 0.00 0.00 55 1008.8
20260505022536 73 155 1.7 6.1 0.00 0.00 0.00 54 1008.8
20260505022034 74 55 0.9 6.1 0.00 0.00 0.00 54 1008.8
20260505021550 74 338 2.6 5.2 0.00 0.00 0.00 53 1008.8
20260505021036 74 10 2.6 4.3 0.00 0.00 0.00 52 1008.7
20260505020535 75 248 0.9 3.5 0.00 0.00 0.00 52 1008.7
20260505020047 75 90 1.7 6.1 0.00 0.00 0.00 52 1008.8
20260505015536 76 355 2.6 6.1 0.00 0.00 0.00 50 1008.7
20260505015037 76 9 2.6 6.1 0.00 0.00 0.00 49 1008.7
20260505014551 77 18 1.7 5.2 0.00 0.00 0.00 48 1008.8
20260505014037 77 355 0.9 7.8 0.00 0.00 0.00 48 1008.7
20260505013535 77 28 0.9 7.8 0.00 0.00 0.00 48 1008.8
20260505013043 77 21 3.5 7.8 0.00 0.00 0.00 46 1008.7
20260505012536 77 268 1.7 7.0 0.00 0.00 0.00 45 1008.7
20260505012037 77 90 2.6 7.8 0.00 0.00 0.00 44 1008.8
20260505011541 77 90 2.6 7.8 0.00 0.00 0.00 44 1008.8
20260505011034 77 90 2.6 7.8 0.00 0.00 0.00 44 1008.9
20260505010536 78 21 2.6 7.0 0.00 0.00 0.00 44 1008.9
20260505010048 78 90 2.6 7.8 0.00 0.00 0.00 42 1008.9
20260505005534 78 355 1.7 7.8 0.00 0.00 0.00 41 1009.0
20260505005034 78 351 2.6 7.0 0.00 0.00 0.00 40 1009.0
20260505004538 78 90 2.6 7.0 0.00 0.00 0.00 41 1008.9
20260505004038 79 243 1.7 7.0 0.00 0.00 0.00 40 1009.0
20260505003535 78 90 0.9 7.8 0.00 0.00 0.00 40 1008.9
20260505003054 78 347 3.5 7.8 0.00 0.00 0.00 40 1008.9
20260505002533 78 99 2.6 7.8 0.00 0.00 0.00 42 1008.8
20260505002109 78 90 2.6 7.8 0.00 0.00 0.00 41 1008.8
20260505001547 78 99 3.5 7.8 0.00 0.00 0.00 40 1008.8
20260505001035 78 337 2.6 7.8 0.00 0.00 0.00 40 1008.9
20260505000536 78 359 3.5 7.8 0.00 0.00 0.00 38 1008.9
20260505000048 78 359 2.6 6.1 0.00 0.00 0.00 37 1008.9
20260504235536 78 16 3.5 6.1 0.00 0.00 0.00 35 1008.9
20260504235035 78 90 3.5 7.0 0.00 0.00 0.00 36 1008.8
20260504234550 78 90 3.5 7.0 0.00 0.00 0.00 37 1008.9
20260504234035 78 28 2.6 7.8 0.00 0.00 0.00 37 1008.8
20260504233538 78 34 2.6 9.6 0.00 0.00 0.00 38 1008.9
20260504233052 78 34 4.3 9.6 0.00 0.00 0.00 38 1008.9
20260504232535 78 7 2.6 9.6 0.00 0.00 0.00 37 1008.8
20260504232036 78 51 2.6 7.0 0.00 0.00 0.00 38 1008.9
20260504231549 78 355 3.5 7.0 0.00 0.00 0.00 37 1008.9
20260504231034 78 257 2.6 6.1 0.00 0.00 0.00 37 1008.9
20260504230533 78 30 0.9 6.1 0.00 0.00 0.00 39 1009.0
20260504230054 78 227 1.7 6.1 0.00 0.00 0.00 39 1009.0
20260504225539 78 174 2.6 7.0 0.00 0.00 0.00 37 1009.2
20260504225035 78 349 2.6 7.0 0.00 0.00 0.00 38 1009.2
20260504224545 79 90 1.7 7.8 0.00 0.00 0.00 37 1009.2
20260504224033 78 247 3.5 7.8 0.00 0.00 0.00 38 1009.2
20260504223533 79 90 3.5 7.0 0.00 0.00 0.00 41 1009.2
20260504223045 79 114 1.7 8.7 0.00 0.00 0.00 40 1009.3
20260504222536 79 90 1.7 8.7 0.00 0.00 0.00 38 1009.3
20260504222033 78 28 1.7 7.0 0.00 0.00 0.00 38 1009.4
20260504221540 78 90 2.6 7.0 0.00 0.00 0.00 40 1009.4
20260504221035 78 17 3.5 8.7 0.00 0.00 0.00 40 1009.5
20260504220535 78 30 2.6 8.7 0.00 0.00 0.00 40 1009.5
20260504220051 78 55 3.5 7.8 0.00 0.00 0.00 39 1009.5
20260504215536 78 45 3.5 8.7 0.00 0.00 0.00 41 1009.4
20260504215036 78 28 1.7 8.7 0.00 0.00 0.00 40 1009.5
20260504214548 78 355 2.6 7.0 0.00 0.00 0.00 39 1009.5
20260504214036 78 28 3.5 8.7 0.00 0.00 0.00 40 1009.5
20260504213536 78 90 2.6 8.7 0.00 0.00 0.00 40 1009.5
20260504213047 78 90 2.6 7.0 0.00 0.00 0.00 40 1009.6
20260504212533 78 55 0.9 6.1 0.00 0.00 0.00 40 1009.6
20260504212041 78 90 1.7 7.0 0.00 0.00 0.00 40 1009.6
20260504211544 78 171 2.6 8.7 0.00 0.00 0.00 40 1009.6
20260504211035 78 90 3.5 8.7 0.00 0.00 0.00 40 1009.6
20260504210540 78 36 1.7 6.1 0.00 0.00 0.00 42 1009.5
20260504210054 78 90 1.7 9.6 0.00 0.00 0.00 41 1009.7
20260504205537 77 45 0.9 9.6 0.00 0.00 0.00 42 1009.7
20260504205038 77 36 2.6 7.8 0.00 0.00 0.00 43 1009.7
20260504204556 77 90 2.6 7.8 0.00 0.00 0.00 44 1009.8
20260504204035 76 10 5.2 7.8 0.00 0.00 0.00 45 1009.7
20260504203537 77 39 2.6 7.0 0.00 0.00 0.00 43 1009.7
20260504203103 77 90 2.6 7.8 0.00 0.00 0.00 45 1009.7
20260504202536 77 34 4.3 7.0 0.00 0.00 0.00 47 1009.6
20260504202036 78 90 1.7 7.8 0.00 0.00 0.00 43 1009.7
20260504201548 79 90 3.5 7.8 0.00 0.00 0.00 40 1009.7
20260504201035 80 90 0.9 7.0 0.00 0.00 0.00 38 1009.7
20260504200535 79 99 0.9 2.6 0.00 0.00 0.00 39 1009.8
20260504200046 78 114 1.7 4.3 0.00 0.00 0.00 42 1009.9
20260504195537 77 112 0.9 4.3 0.00 0.00 0.00 44 1009.9
20260504195039 76 141 3.5 4.3 0.00 0.00 0.00 41 1010.0
20260504194546 75 99 0.9 7.0 0.00 0.00 0.00 42 1010.0
20260504194038 75 217 1.7 7.8 0.00 0.00 0.00 42 1010.0
20260504193537 75 30 3.5 7.8 0.00 0.00 0.00 43 1010.0
20260504193048 75 25 5.2 7.8 0.00 0.00 0.00 44 1010.0
20260504192536 75 51 2.6 6.1 0.00 0.00 0.00 44 1010.0
20260504192036 75 39 1.7 7.0 0.00 0.00 0.00 42 1010.1
20260504191550 75 34 2.6 7.0 0.00 0.00 0.00 44 1010.1
20260504191033 75 19 2.6 7.0 0.00 0.00 0.00 43 1010.1
20260504190537 75 45 1.7 7.0 0.00 0.00 0.00 43 1010.1
20260504190101 75 51 1.7 3.5 0.00 0.00 0.00 45 1010.1
20260504185534 75 144 0.9 7.8 0.00 0.00 0.00 49 1010.1
20260504185033 74 90 2.6 7.8 0.00 0.00 0.00 45 1010.2
20260504184550 73 183 1.7 4.3 0.00 0.00 0.00 45 1010.2
20260504184039 73 34 2.6 7.0 0.00 0.00 0.00 46 1010.3
20260504183535 73 217 2.6 7.0 0.00 0.00 0.00 49 1010.3
20260504183047 73 10 2.6 6.1 0.00 0.00 0.00 47 1010.3
20260504182536 73 30 1.7 5.2 0.00 0.00 0.00 49 1010.4
20260504182036 73 214 0.9 6.1 0.00 0.00 0.00 49 1010.4
20260504181550 72 355 1.7 5.2 0.00 0.00 0.00 49 1010.5
20260504181036 72 32 1.7 6.1 0.00 0.00 0.00 48 1010.5
20260504180537 72 124 2.6 6.1 0.00 0.00 0.00 49 1010.4
20260504180045 71 141 0.9 7.0 0.00 0.00 0.00 52 1010.4
20260504175535 70 178 3.5 7.0 0.00 0.00 0.00 49 1010.3
20260504175033 71 205 3.5 7.0 0.00 0.00 0.00 50 1010.4
20260504174553 71 203 0.9 2.6 0.00 0.00 0.00 51 1010.4
20260504174037 70 158 0.9 6.1 0.00 0.00 0.00 52 1010.4
20260504173533 69 99 0.9 6.1 0.00 0.00 0.00 53 1010.4
20260504173052 69 149 3.5 6.1 0.00 0.00 0.00 54 1010.4
20260504172534 69 212 1.7 7.0 0.00 0.00 0.00 53 1010.4
20260504172036 68 116 0.9 7.8 0.00 0.00 0.00 54 1010.5
20260504171549 68 224 2.6 7.8 0.00 0.00 0.00 57 1010.4
20260504171038 69 208 3.5 7.8 0.00 0.00 0.00 55 1010.4
20260504170535 68 174 0.9 6.1 0.00 0.00 0.00 56 1010.4
20260504151038 62 0 0.0 0.9 0.00 0.00 0.00 70 1009.8
20260504150535 61 141 0.9 1.7 0.00 0.00 0.00 75 1009.9
20260504141038 53 149 0.9 2.6 0.00 0.00 0.00 90 1009.4
20260504140538 53 227 1.7 2.6 0.00 0.00 0.00 90 1009.4
20260504130539 50 90 0.0 1.7 0.00 0.00 0.00 91 1008.8
20260504110540 51 0 0.0 1.7 0.00 0.00 0.00 90 1008.9
20260504100534 53 90 0.0 1.7 0.00 0.00 0.00 88 1008.8
20260504081543 56 141 0.0 1.7 0.00 0.00 0.00 85 1009.0
20260504081034 56 90 0.0 1.7 0.00 0.00 0.00 85 1009.0
20260504080537 56 0 0.0 1.7 0.00 0.00 0.00 84 1009.0